{"data":{"norad_id":54761,"epoch":"2026-09-20T13:01:33.221568Z","epoch_age_seconds":85934,"freshness":"FRESH","line1":"1 54761U 22175D   26263.54274562  .00000974  00000+0  43143-4 0  9992","line2":"2 54761  53.1590 237.6320 0001399  85.2736 274.8425 15.31698955209492","mean_motion":15.31698955,"eccentricity":0.0001399,"inclination_deg":53.159,"raan_deg":237.632,"arg_perigee_deg":85.2736,"mean_anomaly_deg":274.8425,"bstar":4.3143e-5,"rev_number":20949,"period_min":94.013252101488,"perigee_km":469.78495199061,"apogee_km":471.70126864547,"semimajor_km":6848.880110318,"source":"CELESTRAK","updated_at":"2026-09-21T09:00:33.120024Z"}}